Weather History for Bullsbrook Pearce, WE

Change the Weather History Date:

Tuesday, December 25, 2012

  Actual Average (YPPH) Record (YPPH)
Temperature  
Mean Temperature 84 °F -  
Max Temperature 104 °F 86 °F 105 °F (2007)
Min Temperature 65 °F 60 °F 39 °F (2004)
Cooling Degree Days 20    
Growing Degree Days 34 (Base 50)    
Moisture  
Dew Point 51 °F    
Average Humidity 32    
Maximum Humidity 68    
Minimum Humidity 10    
Precipitation  
Precipitation 0.00 in - - ()
Sea Level Pressure  
Sea Level Pressure 29.88 in    
Wind  
Wind Speed 10 mph ()    
Max Wind Speed 23 mph    
Max Gust Speed -    
Visibility 6.2 miles    
Events      
Averages and records for this station are not official NWS values.
T = Trace of Precipitation, MM = Missing Value Source: Averaged Metar Reports

Daily Weather History Graph

Daily Weather History Graph

Search for Another Location

Airport:

Trip Planner

Search our weather history database for the weather conditions in past years. The results will help you decide how hot, cold, wet, or windy it might be!

Date:

Astronomy

Dec. 25, 2012 Rise Set
Actual Time 5:09 AM AWST 7:22 PM AWST
Civil Twilight 4:41 AM AWST 7:50 PM AWST
Nautical Twilight 4:07 AM AWST 8:24 PM AWST
Astronomical Twilight 3:29 AM AWST 9:02 PM AWST
Moon 4:46 PM AWST (12/25) 2:37 AM AWST (12/25)
Length of Visible Light 15h 09m
Length of Day
14h 12m
Waxing Gibbous, 91% of the Moon is Illuminated
Dec 25
Waxing Gibbous
Dec 28
Full
Jan 5
Last Quarter
Jan 12
New
Jan 19
First Quarter

Hourly Weather History & Observations

Time (AWST) Temp. Heat Index Dew Point Humidity Pressure Visibility Wind Dir Wind Speed Gust Speed Precip Events Conditions
12:00 AM 70 °F - 57 °F 54% 29.94 in - South 5.8 mph - -  
12:00 AM 69.8 °F - 57.2 °F 64% 29.95 in 6.2 mi South 5.8 mph - N/A   Unknown
1:00 AM 66.2 °F - 55.4 °F 68% 29.92 in 6.2 mi SW 5.8 mph - N/A   Unknown
1:37 AM 77.0 °F - 55.4 °F 47% 29.92 in 6.2 mi South 4.6 mph - N/A   Scattered Clouds
2:00 AM 78.8 °F - 48.2 °F 34% 29.89 in 6.2 mi East 11.5 mph - N/A   Unknown
3:00 AM 78 °F - 49 °F 25% 29.90 in - East 16.1 mph - -  
3:00 AM 77.0 °F - 48.2 °F 36% 29.89 in 6.2 mi East 16.1 mph - N/A   Unknown
4:00 AM 77.0 °F - 48.2 °F 36% 29.89 in 6.2 mi East 17.3 mph - N/A   Unknown
5:00 AM 75.2 °F - 50.0 °F 41% 29.92 in 6.2 mi East 17.3 mph - N/A   Unknown
6:00 AM 75 °F - 50 °F 30% 29.91 in - East 18.4 mph - -  
6:00 AM 75.2 °F - 50.0 °F 41% 29.92 in 6.2 mi East 18.4 mph - N/A   Unknown
7:00 AM 78.8 °F - 50.0 °F 36% 29.92 in 6.2 mi East 12.7 mph - N/A   Unknown
8:00 AM 84.2 °F - 50.0 °F 30% 29.92 in 6.2 mi NNE 4.6 mph - N/A   Unknown
9:00 AM 88 °F - 50 °F 17% 29.93 in - NE 8.1 mph - -  
9:00 AM 87.8 °F - 50.0 °F 27% 29.92 in 6.2 mi NE 8.1 mph - N/A   Unknown
10:00 AM 93.2 °F 90.8 °F 53.6 °F 26% 29.92 in 6.2 mi ENE 10.4 mph - N/A   Unknown
11:00 AM 96.8 °F - 51.8 °F 22% 29.89 in 6.2 mi East 8.1 mph - N/A   Unknown
12:00 PM 98 °F - 47 °F 10% 29.88 in - SE 6.9 mph - -  
12:00 PM 98.6 °F - 48.2 °F 18% 29.89 in 6.2 mi SE 6.9 mph - N/A   Unknown
1:00 PM 100.4 °F - 48.2 °F 17% 29.86 in 6.2 mi South 3.5 mph - N/A   Unknown
2:00 PM 102.2 °F - 44.6 °F 14% 29.83 in 6.2 mi ESE 5.8 mph - N/A   Unknown
2:47 PM 102.2 °F - 50.0 °F 17% 29.80 in 6.2 mi SW 17.3 mph - N/A   Unknown
3:00 PM 102 °F - 52 °F 11% 29.80 in - SW 20.7 mph - -  
3:00 PM 102.2 °F - 51.8 °F 18% 29.80 in 6.2 mi SW 20.7 mph - N/A   Unknown
4:00 PM 100.4 °F - 50.0 °F 18% 29.80 in 6.2 mi SSW 19.6 mph - N/A   Unknown
5:00 PM 96.8 °F - 50.0 °F 20% 29.80 in 6.2 mi SSW 23.0 mph - N/A   Unknown
6:00 PM 94 °F - 49 °F 13% 29.82 in - SSW 18.4 mph - -  
6:00 PM 93.2 °F - 50.0 °F 23% 29.80 in 6.2 mi SSW 18.4 mph - N/A   Unknown
7:00 PM 86.0 °F - 51.8 °F 31% 29.83 in 6.2 mi SSW 17.3 mph - N/A   Unknown
8:00 PM 78.8 °F - 55.4 °F 44% 29.86 in 6.2 mi SSW 9.2 mph - N/A   Unknown
9:00 PM 77 °F - 56 °F 37% 29.87 in - South 5.8 mph - -  
9:00 PM 77.0 °F - 55.4 °F 47% 29.86 in 6.2 mi South 5.8 mph - N/A   Unknown
10:00 PM 75.2 °F - 57.2 °F 53% 29.86 in 6.2 mi SW 3.5 mph - N/A   Unknown
11:00 PM 75.2 °F - 59.0 °F 57% 29.86 in 6.2 mi South 4.6 mph - N/A   Unknown